Location: Ravensburg
(47.7866°N, 9.6124°E)
Time: 09:55:22
(UTC+02:00)

METEOR M2 - Pass Details

Date: 15 March 2026
Orbit: 817 x 824 km, 98.5° (Epoch: 18 April)

Event Time Altitude Azimuth Distance (km) Brightness Sun altitude
Rises 05:39:42 0° 8° (N) 3,373 ? -10.1°
Reaches altitude 10° 05:42:10 10° 1° (N) 2,436 ? -9.7°
Maximum altitude 05:47:09 40° 294° (WNW) 1,206 ? -8.9°
Drops below altitude 10° 05:52:07 10° 226° (SW) 2,420 ? -8.0°
Sets 05:54:34 0° 219° (SW) 3,348 ? -7.6°
